Dewpoint
36 37 39 40 40 41 41 40 39 39 39 40 41 39 39 40 39 37 35 37 34 30 28 28 28 26 25 26 23 24 23 22 21 19 13 13 17 21 20 19 18 18 21 24 22 21 15 23 24 21 24 26 25 26
36 37 39 39 39 40 39 39 39 40 38 38 40 39 39 40 38 38 33 34 34 31 28 29 29 29 29 30 30 29 25 26 26 23 25 26 23 23 22 21 27 23 26 28 25 22 27 30 26 25 26 26 28 28
37 38 37 39 38 37 37 38 39 39 38 39 38 38 39 39 38 36 34 34 33 29 28 28 27 28 29 29 29 27 28 28 29 29 28 26 24 27 20 23 25 24 27 31 32 31 30 33 31 30 27 25 26 27
36 36 36 37 38 37 38 39 39 38 37 38 37 38 39 38 37 36 34 34 35 32 25 23 26 28 30 31 32 31 30 35 35 35 31 28 25 30 24 25 24 25 26 25 25 27 30 32 32 32 31 31 29 29
36 36 37 37 37 37 37 37 37 36 37 37 37 38 39 38 37 35 34 33 34 29 22 25 27 26 26 27 28 30 33 33 32 30 30 26 30 27 26 26 25 26 25 24 22 25 27 27 32 32 31 30 29 27
38 38 36 36 36 36 36 36 36 36 36 37 39 38 36 37 36 33 30 35 34 34 30 22 29 27 28 32 30 35 35 35 35 32 31 30 30 26 24 22 24 26 27 28 27 28 29 30 29 28 28 28 27 27
33 34 37 38 38 37 36 36 36 36 36 37 38 37 37 37 34 31 27 36 39 37 30 24 25 31 36 35 33 31 33 35 34 32 30 28 26 27 23 21 23 24 27 27 29 29 28 28 28 29 29 27 28 27
31 31 32 33 35 38 38 36 36 36 36 37 38 38 38 37 36 32 33 36 39 34 33 22 22 25 34 29 30 33 30 33 32 32 31 27 27 29 27 26 26 27 32 31 28 27 27 28 29 29 28 28 27 27
30 30 31 31 32 34 35 38 37 36 36 37 38 38 36 33 30 30 37 38 38 32 26 26 20 15 33 29 31 33 32 28 29 28 27 27 27 24 27 28 31 32 31 28 29 29 29 29 29 29 29 28 28 27
29 30 32 31 31 32 32 34 36 38 36 36 36 33 30 33 37 38 35 28 33 32 32 25 24 21 31 30 32 31 32 27 23 27 29 26 24 26 34 30 30 29 28 29 28 27 29 29 29 29 29 29 29 28
29 29 29 30 33 32 32 33 36 37 36 34 34 32 33 40 32 30 26 28 27 25 28 27 24 21 26 23 23 28 27 27 19 24 25 26 25 33 34 33 30 30 30 30 29 29 29 29 28 29 29 29 29 29
28 28 29 29 30 32 31 32 34 35 35 36 35 34 31 26 24 23 22 25 24 22 26 26 27 29 31 34 29 32 27 24 20 28 25 22 29 28 28 29 29 29 28 28 27 27 28 27 28 29 28 28 28 29
27 28 29 29 28 29 31 31 33 35 35 33 31 28 25 22 14 19 11 18 18 23 29 30 29 30 32 33 30 27 21 18 26 14 20 26 28 27 28 28 28 28 28 29 28 29 29 29 29 29 28 29 29 29
27 28 30 30 30 32 31 32 32 35 31 27 26 12 19 17 20 19 18 20 26 28 30 32 31 29 30 28 29 24 24 24 14 11 20 27 28 27 28 28 29 29 29 29 30 30 30 30 29 29 28 30 30 29
28 28 30 30 30 35 35 36 34 34 30 26 25 14 19 21 24 25 26 26 28 30 30 29 29 28 25 23 25 23 19 16 20 18 26 28 27 28 29 29 30 29 29 30 30 30 30 28 29 29 30 32 32 30
29 26 25 30 29 30 31 33 35 33 31 27 23 21 23 22 22 24 26 25 30 29 28 27 25 22 21 22 21 18 17 12 21 24 28 27 26 27 30 28 30 30 31 30 30 29 30 30 30 30 30 29 30 31
29 25 27 27 30 28 29 34 32 31 28 23 20 25 23 23 22 23 25 26 30 29 22 26 20 20 23 20 19 23 18 24 27 28 27 26 28 30 28 29 27 29 28 29 32 29 30 27 27 26 29 30 30 30
26 25 26 31 26 28 30 32 29 25 23 24 20 20 23 24 25 25 27 29 27 29 30 27 27 21 22 21 21 21 23 25 26 25 24 26 30 29 27 28 28 30 28 30 32 30 31 29 27 28 29 29 29 29
29 29 27 28 25 26 24 26 27 21 22 23 23 23 25 25 27 28 29 30 30 31 30 27 23 20 21 26 26 23 25 24 20 21 26 30 27 25 24 27 29 29 30 30 31 31 31 31 29 29 29 29 28 29
27 24 24 27 28 25 21 23 28 24 20 20 21 20 21 22 25 26 27 29 30 30 24 25 21 21 23 22 23 24 25 25 23 22 18 20 26 23 24 26 29 30 30 30 30 31 25 25 29 29 30 29 28 28
22 22 23 25 28 27 24 23 23 23 22 20 21 20 20 25 24 23 25 29 28 26 21 23 19 23 24 22 24 24 23 21 20 23 23 22 23 24 25 26 29 31 29 30 29 30 26 23 28 29 30 29 29 30
26 25 25 23 24 23 25 21 21 23 23 22 21 22 22 19 21 25 29 27 25 20 21 21 24 23 21 21 21 22 20 21 22 25 22 21 21 21 24 25 27 23 23 25 26 28 26 25 28 29 29 29 29 27
25 24 24 22 20 18 16 23 18 16 14 18 19 17 18 19 24 28 26 25 18 20 22 21 20 23 21 21 22 21 19 20 21 20 17 17 21 23 23 27 23 19 18 20 24 25 26 27 27 29 30 29 29 29
24 23 20 17 16 11 21 16 21 18 18 16 15 13 14 19 26 24 20 18 16 21 21 19 21 20 20 20 21 16 15 18 21 17 15 15 18 19 23 24 20 18 18 20 21 21 22 23 27 27 29 29 29 28
18 16 16 12 16 12 9 11 14 13 9 15 14 12 16 24 20 20 17 18 14 16 18 20 21 22 21 21 18 13 12 14 15 14 10 13 13 15 16 18 20 16 16 16 15 16 18 20 22 25 25 28 28 27
12 13 12 9 9 8 13 7 9 10 13 11 16 23 25 22 19 14 16 16 15 20 17 18 19 20 20 21 20 17 12 14 18 15 9 11 9 8 8 9 10 10 14 16 16 15 17 18 19 20 23 26 27 28
10 12 12 12 12 13 15 15 15 18 12 8 11 14 20 14 10 12 18 20 20 21 21 21 22 23 18 16 16 14 14 15 13 12 14 13 11 7 5 5 8 9 13 15 16 16 16 18 18 18 20 23 27 29
13 11 6 12 11 9 13 16 17 14 15 22 22 18 15 11 10 16 18 20 19 19 17 16 16 16 16 15 12 13 12 13 13 13 17 19 13 6 4 5 6 14 8 10 13 15 17 19 18 19 19 21 27 28
13 14 11 11 15 16 16 20 16 19 18 18 11 14 11 14 17 18 17 17 18 16 14 14 12 14 14 13 11 10 7 6 3 -2 -3 4 -1 -0 3 2 3 3 5 7 11 15 18 17 19 20 22 23 25 28
11 18 16 18 17 13 17 19 18 16 18 18 16 14 13 11 15 20 18 18 16 15 14 14 13 13 11 11 2 0 1 -2 -2 -3 -6 -6 -2 0 -2 -0 7 4 9 5 9 12 14 13 15 17 18 20 28 28
19 19 17 19 17 18 19 18 18 16 14 14 16 14 9 11 14 19 17 20 20 17 14 12 11 8 4 4 8 5 -2 -2 -4 -3 -3 -3 -2 -4 -4 3 0 2 5 6 8 12 8 8 8 10 12 12 14 23
19 20 13 8 10 14 14 13 15 12 11 13 11 9 9 7 6 11 21 19 15 12 11 11 12 9 5 2 -1 4 2 1 -4 -6 -6 -8 -9 -8 -3 -3 -3 -1 1 5 3 4 3 3 3 3 6 7 9 12
19 20 13 9 6 7 12 17 14 11 12 15 10 10 11 12 10 14 16 18 14 15 15 14 12 8 5 4 2 2 0 -4 -4 4 -1 -2 -6 -6 -9 -9 -7 -6 0 -1 -0 -1 -1 -1 -1 -1 1 3 5 7
Lifted_Index
16 16 15 13 12 11 11 11 10 10 10 10 9 9 8 8 8 8 8 8 8 8 8 7 7 7 5 4 3 2 2 2 1 2 1 1 1 1 0 0 1 1 0 0 0 1 1 0 0 1 2 2 3 3
16 15 14 13 12 12 11 11 10 10 10 10 9 9 8 8 8 8 8 8 8 8 8 8 7 6 5 4 4 3 2 2 2 2 2 1 1 1 0 0 0 0 0 0 0 1 0 0 -0 0 1 1 2 2
16 15 14 13 12 12 11 11 10 10 10 10 9 9 8 8 8 8 8 8 9 8 8 8 7 6 5 4 4 3 3 3 2 2 2 2 1 1 1 1 1 1 1 1 1 1 0 -0 -0 -0 0 1 2 2
15 15 14 13 12 12 11 11 10 10 10 10 9 9 8 8 8 8 8 9 9 8 8 7 6 5 5 4 3 3 3 2 2 2 1 1 1 1 1 1 1 2 1 2 2 1 1 0 -0 -0 0 1 2 2
15 14 13 13 12 12 11 11 11 11 10 10 9 9 8 8 8 8 8 8 8 8 8 6 5 4 3 3 2 2 2 2 1 1 1 1 1 1 2 2 2 1 1 2 2 2 1 1 1 1 1 2 2 2
14 14 13 12 12 11 11 11 11 11 10 10 9 9 9 8 8 8 8 8 8 8 7 6 5 3 2 2 2 1 1 1 1 1 1 1 1 1 2 2 2 1 1 1 1 1 1 1 2 2 2 2 3 3
14 14 13 12 11 11 11 11 11 10 10 9 9 9 9 8 8 8 8 7 7 7 7 6 4 2 1 1 1 1 1 1 1 1 1 1 1 1 2 2 2 1 1 0 1 1 1 2 2 2 3 3 4 4
15 14 13 12 12 11 11 11 10 10 10 9 9 9 8 8 8 8 8 7 7 7 7 7 5 2 1 1 1 1 1 1 1 1 1 1 1 1 1 1 1 1 0 0 1 1 2 2 2 3 3 4 4 4
15 14 13 13 12 12 11 10 10 10 10 9 9 8 8 8 8 7 7 6 7 7 7 6 5 3 1 1 1 1 1 1 1 1 1 1 1 1 1 0 0 0 0 1 1 2 3 3 4 4 4 5 5 5
14 14 13 13 12 12 11 11 10 9 9 9 8 8 8 7 7 6 6 6 6 6 6 5 5 4 2 1 1 1 1 1 1 1 1 1 1 0 0 1 0 1 1 1 2 3 4 4 4 5 5 5 5 5
14 13 13 13 12 12 12 11 10 9 9 8 8 8 7 7 6 6 5 5 5 5 5 4 3 3 2 2 2 1 1 1 1 0 0 0 0 0 1 1 1 1 2 3 3 4 4 5 5 5 5 5 6 6
13 13 13 13 12 12 11 11 10 9 8 8 8 8 7 7 6 5 4 4 4 3 3 2 1 1 1 1 1 1 1 1 0 0 0 0 1 1 1 2 2 3 3 3 4 4 4 5 5 5 6 7 8 8
13 13 12 12 12 12 11 11 10 9 8 8 8 7 7 6 5 4 3 3 3 2 1 1 1 0 0 0 0 1 0 0 0 0 0 1 1 2 2 3 3 3 3 3 3 4 4 5 5 5 6 7 8 9
12 12 12 12 12 11 10 10 9 8 8 8 7 7 6 5 4 3 3 2 2 2 1 1 1 0 0 0 0 0 0 0 0 0 0 1 1 2 3 3 3 3 3 3 4 4 4 4 5 5 6 7 8 8
12 12 11 11 11 10 9 9 8 8 8 7 7 6 6 5 4 3 2 2 2 2 1 1 1 1 1 1 1 0 0 0 0 0 1 1 2 2 3 3 3 3 3 4 4 4 4 4 5 5 6 6 7 7
11 11 11 10 10 9 9 8 7 7 7 7 7 6 5 5 4 3 2 2 2 2 2 2 2 1 1 1 0 0 0 0 0 1 1 2 2 2 3 3 3 3 3 4 4 4 4 4 5 5 5 6 6 7
10 10 10 10 9 9 8 7 7 7 7 7 7 6 5 5 4 3 3 2 2 2 2 2 2 1 1 1 0 0 0 0 1 1 2 2 2 3 3 3 3 3 4 4 4 4 4 5 5 5 6 6 6 6
9 9 9 9 9 9 8 7 6 6 6 6 6 5 5 4 4 3 3 2 2 2 2 2 2 2 1 1 1 1 1 1 2 2 3 3 3 3 3 3 3 4 4 4 4 4 4 4 5 5 6 6 7 7
8 8 8 8 8 8 8 7 6 6 6 6 5 5 4 4 3 3 2 2 2 2 2 2 2 2 2 2 2 1 2 2 3 3 3 4 4 4 4 3 4 4 4 4 4 4 4 4 5 5 6 6 7 7
8 8 8 8 8 8 7 6 5 5 5 5 4 4 3 3 3 2 2 2 2 2 3 3 3 3 3 3 3 3 3 4 4 4 4 5 5 5 5 4 4 4 4 4 4 4 4 4 4 5 6 6 7 7
8 8 7 7 7 7 6 6 4 4 3 3 3 3 3 2 2 2 2 2 2 3 3 4 4 4 4 4 4 4 5 6 6 6 6 6 6 6 6 6 6 5 4 4 4 4 4 4 5 5 6 6 7 7
7 7 7 6 6 6 6 5 4 3 3 2 2 2 2 2 1 1 1 2 2 3 3 4 4 4 4 5 5 6 6 7 7 7 7 7 7 7 8 8 7 6 6 5 5 5 5 5 5 5 6 6 7 7
6 6 6 6 6 5 5 4 4 3 3 2 2 2 2 1 1 1 1 2 2 3 4 4 5 5 5 6 6 7 7 8 8 9 9 9 9 9 9 9 8 8 7 7 7 6 6 6 6 6 6 6 6 6
5 5 5 5 5 5 4 3 3 2 2 2 2 2 2 1 1 1 1 2 3 3 4 5 5 6 6 7 7 8 9 9 10 10 10 10 10 10 10 10 9 9 9 8 8 7 7 6 6 6 6 6 6 6
5 5 5 5 5 4 3 3 2 2 2 1 1 1 1 1 1 2 2 3 3 3 4 5 6 7 7 8 8 9 10 11 11 11 11 12 12 11 11 11 10 10 10 10 9 8 7 7 6 6 6 6 6 6
5 5 5 5 4 4 3 2 1 1 1 1 1 1 1 1 1 2 3 3 3 4 5 6 7 8 8 9 9 10 11 12 13 12 13 13 13 13 12 12 11 11 12 11 10 9 8 7 7 6 6 6 6 6
4 4 5 4 4 3 2 1 1 1 1 1 1 1 1 1 2 3 3 4 5 6 7 8 9 9 9 10 10 11 12 13 14 14 14 15 15 14 14 14 13 13 14 13 12 10 9 8 7 6 6 6 7 7
4 4 4 3 3 2 1 1 0 0 0 1 1 1 2 2 3 4 4 6 7 8 9 9 10 10 11 11 12 13 14 14 14 14 15 15 15 15 16 16 16 15 15 14 13 11 10 8 7 6 6 6 6 7
3 3 3 2 2 1 1 0 0 0 1 1 2 2 3 3 4 5 6 7 8 9 10 10 11 11 12 12 13 14 15 15 14 14 14 14 14 15 16 16 16 15 15 14 13 12 10 9 8 7 6 6 6 6
2 2 2 1 1 0 0 0 1 1 2 2 3 4 4 5 6 8 8 9 10 10 10 11 12 12 12 13 13 14 15 15 15 15 14 14 15 15 16 15 15 14 14 13 12 11 10 9 8 7 6 6 6 6
1 1 1 1 0 0 0 1 2 2 3 4 4 5 5 6 7 9 10 11 11 11 11 12 12 13 13 13 14 14 15 16 16 16 16 16 15 15 15 14 14 14 13 13 12 11 10 9 8 7 6 6 6 6
1 1 1 1 1 1 1 2 3 3 4 5 5 5 6 6 7 9 11 12 12 12 12 13 13 13 14 15 15 15 16 16 17 17 16 16 16 15 14 14 14 14 13 13 12 12 11 10 9 7 6 6 6 6
0 1 1 1 1 1 2 3 3 4 5 5 5 6 7 7 7 9 12 12 12 12 13 13 14 14 15 16 16 16 16 17 17 17 16 16 15 15 14 14 14 14 13 13 12 12 12 11 10 8 7 6 6 6